Time,TemperatureF,DewpointF,PressureIn,WindDirection,WindDirectionDegrees,WindSpeedMPH,WindSpeedGustMPH,Humidity,HourlyPrecipIn,Conditions,Clouds,dailyrainin,SoftwareType,DateUTC
2013-08-28 00:05:00,63.7,63.7,29.79,West,272,0.0,0.0,100,0.00,,,0.02,Wunderground v.1.15,2013-08-28 07:05:00,
2013-08-28 00:35:00,63.5,63.5,29.79,West,272,0.0,0.0,100,0.00,,,0.00,Wunderground v.1.15,2013-08-28 07:35:00,
2013-08-28 01:05:00,63.2,63.2,29.80,West,272,0.0,0.0,100,0.00,,,0.00,Wunderground v.1.15,2013-08-28 08:05:00,
2013-08-28 01:35:00,62.9,62.9,29.79,West,272,0.0,0.0,100,0.00,,,0.00,Wunderground v.1.15,2013-08-28 08:35:00,
2013-08-28 02:05:00,62.7,62.7,29.79,West,272,0.0,0.0,100,0.00,,,0.00,Wunderground v.1.15,2013-08-28 09:05:00,
2013-08-28 02:35:00,62.7,62.7,29.79,West,272,0.0,0.0,100,0.00,,,0.00,Wunderground v.1.15,2013-08-28 09:35:00,
2013-08-28 03:05:00,62.6,62.6,29.79,West,272,0.0,0.0,100,0.00,,,0.00,Wunderground v.1.15,2013-08-28 10:05:00,
2013-08-28 03:35:00,62.6,62.6,29.78,West,272,0.0,0.0,100,0.00,,,0.00,Wunderground v.1.15,2013-08-28 10:35:00,
2013-08-28 04:05:00,62.6,62.6,29.78,West,272,0.0,0.0,100,0.00,,,0.00,Wunderground v.1.15,2013-08-28 11:05:00,
2013-08-28 04:35:00,62.6,62.6,29.78,West,272,0.0,0.0,100,0.00,,,0.00,Wunderground v.1.15,2013-08-28 11:35:00,
2013-08-28 05:05:00,62.6,62.6,29.77,West,272,0.0,0.0,100,0.00,,,0.00,Wunderground v.1.15,2013-08-28 12:05:00,
2013-08-28 05:35:00,62.3,62.3,29.77,West,272,0.0,0.0,100,0.00,,,0.00,Wunderground v.1.15,2013-08-28 12:35:00,
2013-08-28 06:05:00,62.1,62.1,29.78,West,272,0.0,0.0,100,0.00,,,0.00,Wunderground v.1.15,2013-08-28 13:05:00,
2013-08-28 06:35:00,62.0,62.0,29.78,West,272,0.0,0.0,100,0.00,,,0.00,Wunderground v.1.15,2013-08-28 13:35:00,
2013-08-28 07:05:00,62.1,62.1,29.79,West,272,0.0,0.0,100,0.00,,,0.00,Wunderground v.1.15,2013-08-28 14:05:00,
2013-08-28 07:35:00,62.9,62.9,29.80,West,272,0.0,0.0,100,0.00,,,0.00,Wunderground v.1.15,2013-08-28 14:35:00,
2013-08-28 08:05:00,63.5,63.5,29.80,West,272,0.0,0.0,100,0.00,,,0.00,Wunderground v.1.15,2013-08-28 15:05:00,
2013-08-28 08:35:00,64.5,64.5,29.80,West,272,0.0,0.0,100,0.00,,,0.00,Wunderground v.1.15,2013-08-28 15:35:00,
2013-08-28 09:05:00,64.8,64.8,29.80,West,272,0.0,0.0,100,0.00,,,0.00,Wunderground v.1.15,2013-08-28 16:05:00,
2013-08-28 09:35:00,65.3,65.3,29.80,West,272,0.0,0.0,100,0.00,,,0.00,Wunderground v.1.15,2013-08-28 16:35:00,
2013-08-28 10:05:00,65.8,65.8,29.82,West,272,0.0,0.0,100,0.00,,,0.00,Wunderground v.1.15,2013-08-28 17:05:00,
2013-08-28 10:35:00,67.4,67.1,29.81,West,272,0.0,0.0,99,0.00,,,0.00,Wunderground v.1.15,2013-08-28 17:35:00,
2013-08-28 11:05:00,69.9,67.8,29.82,West,272,0.0,0.0,93,0.00,,,0.00,Wunderground v.1.15,2013-08-28 18:05:00,
2013-08-28 11:35:00,70.6,67.5,29.82,WSW,254,0.0,0.0,90,0.00,,,0.00,Wunderground v.1.15,2013-08-28 18:35:00,
2013-08-28 12:05:00,70.8,67.4,29.83,WSW,240,0.0,0.0,89,0.00,,,0.00,Wunderground v.1.15,2013-08-28 19:05:00,
2013-08-28 12:35:00,70.8,67.1,29.83,SW,226,0.0,0.0,88,0.00,,,0.00,Wunderground v.1.15,2013-08-28 19:35:00,
2013-08-28 13:05:00,71.3,67.2,29.83,South,189,0.0,0.0,87,0.00,,,0.00,Wunderground v.1.15,2013-08-28 20:05:00,
2013-08-28 13:35:00,71.3,67.6,29.83,SW,219,0.0,0.0,88,0.00,,,0.00,Wunderground v.1.15,2013-08-28 20:35:00,
2013-08-28 14:05:00,71.3,67.6,29.84,SSW,200,0.0,0.0,88,0.00,,,0.00,Wunderground v.1.15,2013-08-28 21:05:00,
2013-08-28 14:35:00,73.7,68.6,29.83,SSW,200,0.0,0.0,84,0.00,,,0.00,Wunderground v.1.15,2013-08-28 21:35:00,
2013-08-28 15:05:00,73.7,68.6,29.83,SSW,200,0.0,0.0,84,0.00,,,0.00,Wunderground v.1.15,2013-08-28 22:05:00,
2013-08-28 15:35:00,72.0,67.9,29.83,SSW,200,0.0,0.0,87,0.00,,,0.00,Wunderground v.1.15,2013-08-28 22:35:00,
2013-08-28 16:05:00,72.3,67.9,29.83,SW,222,0.0,0.0,86,0.00,,,0.00,Wunderground v.1.15,2013-08-28 23:05:00,
2013-08-28 16:35:00,71.6,67.5,29.83,SSW,203,0.0,0.0,87,0.00,,,0.00,Wunderground v.1.15,2013-08-28 23:35:00,
2013-08-28 17:05:00,69.6,66.9,29.85,SSW,203,0.0,0.0,91,0.00,,,0.00,Wunderground v.1.15,2013-08-29 00:05:00,
2013-08-28 17:35:00,68.3,66.2,29.85,SSW,203,0.0,0.0,93,0.00,,,0.00,Wunderground v.1.15,2013-08-29 00:35:00,
2013-08-28 18:05:00,67.9,66.4,29.84,SSW,203,0.0,0.0,95,0.00,,,0.00,Wunderground v.1.15,2013-08-29 01:05:00,
2013-08-28 18:35:00,67.8,66.3,29.83,SSW,203,0.0,0.0,95,0.00,,,0.00,Wunderground v.1.15,2013-08-29 01:35:00,
2013-08-28 19:05:00,67.3,66.1,29.83,SSW,203,0.0,0.0,96,0.00,,,0.00,Wunderground v.1.15,2013-08-29 02:05:00,
2013-08-28 19:35:00,66.9,66.0,29.83,SSW,203,0.0,0.0,97,0.00,,,0.00,Wunderground v.1.15,2013-08-29 02:35:00,
2013-08-28 20:05:00,66.4,65.5,29.84,SSW,203,0.0,0.0,97,0.00,,,0.00,Wunderground v.1.15,2013-08-29 03:05:00,
2013-08-28 20:35:00,66.0,66.0,29.84,ESE,110,0.0,0.0,100,0.00,,,0.00,Wunderground v.1.15,2013-08-29 03:35:00,
2013-08-28 21:05:00,65.3,65.3,29.85,ESE,110,0.0,0.0,100,0.00,,,0.00,Wunderground v.1.15,2013-08-29 04:05:00,
2013-08-28 21:35:00,65.0,65.0,29.85,ESE,110,0.0,0.0,100,0.00,,,0.00,Wunderground v.1.15,2013-08-29 04:35:00,
2013-08-28 22:05:00,64.7,64.7,29.85,ESE,110,0.0,0.0,100,0.00,,,0.00,Wunderground v.1.15,2013-08-29 05:05:00,
2013-08-28 22:35:00,64.5,64.5,29.85,ESE,110,0.0,0.0,100,0.00,,,0.00,Wunderground v.1.15,2013-08-29 05:35:00,
2013-08-28 23:05:00,64.3,64.3,29.84,ESE,110,0.0,0.0,100,0.00,,,0.00,Wunderground v.1.15,2013-08-29 06:05:00,
2013-08-28 23:35:00,64.2,64.2,29.84,ESE,110,0.0,0.0,100,0.00,,,0.00,Wunderground v.1.15,2013-08-29 06:35:00,